Погода в Алексеевке

Погода в Алексеевке : погода сейчас, прогноз погоды и архив. Всё, что Вы хотите узнать о погоде в Алексеевке!

Поиск расширенной информации на нашем сайте:

Другие новости

Новости СМИ2

Главная страница сайта

Новости сайта

03.07.2017

Напоминаем, что на нашем специализированном сайте Метеоцентр.Азия вы можете получить высокодетализированные автоматические прогнозы погоды по пунктам России, СНГ и мира в авиационном формате (включающие направление и скорость ветра, видимость, явления погоды, количество и форму облачности, нижнюю и верхнюю границу облачности).


Погода в Алексеевке - сегодня

Время (UTC), дата Ветер
(°,м/с) 
Видим.   Явления Облачность Т
(°С)
Тd
(°С)
f(%) Тe
(°С)
Pmin
(гПа)
dP
(гПа)
Po
(мм)
O2
(г/м3)
Тmin Tmax R s Состояние
почвы
09 20.06.18 220 (ЮЗ) 20000 м  в посл. час гроза{ливн. осадки}  8/3 600 м кучево-дожд., средняя, верхняя 
[Cb cap|Ac lent|Ci fib]
+16.9 +13.5 80 +25  1004.8  -0.1  721  271           
21 20.06.18 180 (Ю) н/о    3/0 средняя 
[Ac As]
+10.1 +8.3 89 +11  1006.7  -0.1  721  279           
00 21.06.18 тихо ()   20000 м    4/0 средняя 
[Ac As]
+12 +7.1 72 +12  1006.2  -0.2  721  277           
06 21.06.18 220 (ЮЗ) 20000 м    3/3 1000 м средняя 
[Cu hum|Ac lent]
+27.1 +8.5 31 +27  1002.4  -1.2  720  262  +10         
09 21.06.18 210 (ЮЗ) 20000 м    8/4 1000 м средняя, верхняя 
[Cu med, cong|Ac lent|Ci fib]
+29.6 +6.4 23 +30  1000.2  -1.8  719  260           
12 21.06.18 240 (ЮЗ) 20000 м    8/3 1000 м средняя, верхняя 
[Cu hum|Ac lent|Ci fib]
+29.8 +5.5 22 +30  998.7  -1.5  718  260           
15 21.06.18 270 (З) 20000 м    8/8 1000 м 
[Sc]
+23 +10.1 44 +25  1000.9  1.3  719  265    +31.1       
21 21.06.18 тихо ()   н/о  {ливн. осадки}  10/10 600 м 
[Sc]
+16.5 +14.8 90 +26  1001.1  -1.2  718  270           
09 22.06.18 170 (Ю) 20000 м    8/3 1000 м средняя, верхняя 
[Cu med, cong|Ac lent|Ci sp]
+21.2 +13 59 +28  997.9  -0.6  716  265           
15 22.06.18 250 (З) 20000 м    ясно 
+20.2 +8.1 46 +20  999  1.1  717  267    +22.7     
21 22.06.18 230 (ЮЗ) н/о    ясно 
+9.5 +5.4 76 +11  1002.1  -0.1  718  279           
00 23.06.18 230 (ЮЗ) 20000 м    4/0 средняя 
[Ac lent]
+12.7 +5.8 63 +13  1001.8  0.2  718  275           
06 23.06.18 230 (ЮЗ) 20000 м    8/8 600 м 
[Sc]
+20.6 +9.6 49 +22  1001.2  -0.3  718  267  +8         
09 23.06.18 240 (ЮЗ) 20000 м    8/8 600 м 
[Cu med, cong]
+23.2 +9 40 +24  1000.9  0.1  719  265           
12 23.06.18 250 (З) 20000 м    9/9 600 м 
[Sc]
+21.7 +9.5 46 +23  1001.4  0.3  719  267           
15 23.06.18 250 (З) 20000 м    6/0 средняя 
[Ac cast]
+20.4 +10.5 53 +23  1001.8  0.2  719  268    +23.8       
18 23.06.18 тихо ()   н/о    9/0 средняя 
[Ac cast]
+16.2 +11.5 74 +20  1003.2  -0.7  719  271    +23.8       
21 23.06.18 250 (З) н/о    3/0 средняя 
[Ac cast]
+13.1 +10.9 86 +17  1003.7  719  274           
00 24.06.18 тихо ()   20000 м    ясно 
+10.1 +7.9 86 +10  1004.6  0.4  720  278           
06 24.06.18 340 (С) 20000 м    6/6 1000 м 
[Cu med, cong]
+21.8 +9.6 46 +23  1003  -0.2  720  267  +10         
09 24.06.18 250 (З) 20000 м    6/3 1000 м средняя 
[Cu med, cong|Ac cast]
+23.5 +8.1 37 +24  1002.3  -0.4  720  266           
21 24.06.18 260 (З) н/о    3/3 600 м 
[Sc]
+12.5 +10.6 88 +17  1006.3  -0.3  721  276           
00 25.06.18 280 (З) 20000 м    4/4 600 м 
[Sc]
+13.1 +11.4 89 +18  1005.9  -0.1  721  275           
06 25.06.18 020 (С) 20000 м    8/4 1000 м средняя 
[Cu med, cong|Ac lent]
+20.4 +11.5 57 +24  1006.9  0.4  723  269  +10.2         
09 25.06.18 350 (С) 20000 м  {ливн. осадки}  8/4 600 м кучево-дожд., средняя 
[Cb cap|Ac lent]
+20.8 +12.8 60 +27  1007.4  0.5  723  268           
Время (UTC), дата Ветер
(°,м/с) 
Видим.   Явления Облачность Т
(°С)
Тd
(°С)
f(%) Тe
(°С)
Pmin
(гПа)
dP
(гПа)
Po
(мм)
O2
(г/м3)
Тmin Tmax R s Состояние
почвы

Для получения пояснительной информации подведите курсор к названию столбца.

ПОГОДА в Алексеевке - архив

Всё, что Вы хотите узнать о погоде в Алексеевке - удобно и подробно!

Выберите нужную дату (начиная с 1 января 2015* года) и нажмите кнопку "Найти".
Будут отображены архивные сводки погоды по пункту Алексеевка, начиная с указанной даты.


Отображать данные в формате CSV (для использования в таблицах Excel)


Внимание! Наш архив погоды предназначен исключительно для личного некоммерческого использования в познавательных целях. Если Вам необходимы официальные справки о состоянии погоды (для производственных, юридических, коммерческих и т.п. целей), обращайтесь в органы Росгидромета.

*Примечание: данная дата относится к архиву по метеостанциям СССР (Россия, СНГ, Балтия).
Архив по метеостанциям Зарубежной Европы и Азии (кроме Китая) хранится 10 дней, по другим регионам земного шара (Китай, Африка, Америка, Австралия, Океания) - 1 день.

Алексеевка - район местоположения метеостанции


Название, широта, долгота, высота метеостанции:
Алексеевка 52°ш. 70.9°д. 384 м над ур. моря [Казахстан]

Дополнительная информация

В oтличие oт бoльшинства пoгoдных сайтoв мы публикуем пoдрoбную метеoинфoрмацию в детальнoм прoфессиoнальнoм фoрмате.

Характеристики температуры и влажнoсти вoздуха измеряются на высoте 2 м в тени вдали oт зданий и деревьев.
Скoрoсть ветра измеряется на высoте 10 м (на урoвне рoста челoвека скoрoсть ветра ниже в 1.5-2 раза). Если метеoстанция нахoдится в гoрoде или в лесу, тo скoрoсть ветра занижена на 2-4 м/с пo сравнению с oткрытым местoм. Скoрoсть ветра над акватoриями крупных рек и oзёр, а также на вершинах хoлмoв на 2-5 м/с выше, чем в oбычных услoвиях.
Атмoсфернoе давление в разных тoчках местнoсти мoжет значительнo oтличаться oт давления на метеoстанции, в зависимoсти oт услoвий рельефа (при пoдъёме на 10 м давление пoнижается примернo на 1 мм рт.ст.).